Home > Weather > Winterthur > Past weeks

Flag for Switzerland Weather for the Past 2 Weeks in Winterthur, Switzerland

Now
34 °F

Passing clouds.


Feels Like: 27 °F
Forecast: 27 / 43 °F
Wind: 8 mph from Southwest

Location: Zurich-Kloten

Current Time: Feb 11, 2016 at 2:23:01 AM

Latest Report: Feb 11, 2016 at 1:20 AM


Visibility: N/A

Pressure: 29.74 "Hg

Humidity: 81%

Dew point: 28 °F

Location of WinterthurLocation

Historic Weather in Winterthur — Graph

°F

Winterthur Temperature Yesterday

Maximum temperature yesterday: 39 °F (at 2:20 PM)
Minimum temperature yesterday: 32 °F (at 4:50 AM)
Average temperature yesterday: 36 °F

High & Low Weather Summary for the Past Weeks

 TemperatureHumidityPressure
High55 °F (Feb 1, 11:20 AM)100% (Jan 30, 3:50 AM)30.48 "Hg (Jan 30, 3:50 AM)
Low30 °F (Jan 30, 5:50 AM)51% (Jan 27, 1:50 PM)29.33 "Hg (Feb 9, 4:50 PM)
Average43 °F81%30.09 "Hg
* Reported Jan 27 12:20 AM — Feb 11 12:50 AM, Winterthur, Weather by CustomWeather, © 2016

Note: Actual official high and low records may vary slightly from our data, if they occured in-between our weather recording intervals... More about our weather records

Advertising

Winterthur Weather History for the Previous 24 Hours

 ConditionsComfort  
Time TempWeatherWind HumidityBarometerVisibility
12:50 AM
Thu, Feb 11
34 °FPassing clouds.9 mph81%29.74 "HgN/A
12:20 AM34 °FPassing clouds.12 mph81%29.74 "HgN/A
11:50 PM
Wed, Feb 10
36 °FPassing clouds.14 mph75%29.74 "HgN/A
11:20 PM36 °FPassing clouds.12 mph75%29.74 "HgN/A
10:50 PM36 °FPassing clouds.14 mph75%29.71 "HgN/A
10:20 PM36 °FPassing clouds.9 mph75%29.71 "HgN/A
9:50 PM36 °FPassing clouds.9 mph70%29.71 "HgN/A
9:20 PM36 °FClear.14 mph70%29.71 "Hg10 mi
8:50 PM36 °FPassing clouds.9 mph70%29.68 "HgN/A
8:20 PM36 °FPassing clouds.14 mph70%29.68 "HgN/A
7:50 PM37 °FScattered showers. Passing clouds.12 mph65%29.68 "HgN/A
7:20 PM37 °FScattered showers. Passing clouds.9 mph65%29.68 "HgN/A
6:50 PM37 °FPassing clouds.10 mph65%29.68 "HgN/A
6:20 PM37 °FPassing clouds.12 mph65%29.65 "HgN/A
5:50 PM37 °FPassing clouds.12 mph70%29.65 "HgN/A
5:20 PM37 °FPartly sunny.14 mph65%29.62 "HgN/A
4:50 PM39 °FScattered showers. Partly sunny.13 mph65%29.62 "HgN/A
4:20 PM39 °FPartly sunny.10 mph65%29.62 "HgN/A
3:50 PM39 °FPartly sunny.16 mph65%29.59 "HgN/A
3:20 PM39 °FPartly sunny.17 mph65%29.59 "HgN/A
2:50 PM39 °FPartly sunny.14 mph65%29.59 "HgN/A
2:20 PM39 °FPartly sunny.14 mph70%29.59 "HgN/A
1:50 PM37 °FSnow flurries. Partly sunny.10 mph75%29.59 "Hg4 mi
1:20 PM37 °FSprinkles. Partly sunny.13 mph75%29.59 "Hg4 mi
12:50 PM36 °FSnow flurries. Partly sunny.10 mph87%29.59 "Hg4 mi
12:20 PM37 °FSnow flurries. Partly sunny.15 mph75%29.59 "HgN/A
11:50 AM37 °FScattered showers. Broken clouds.16 mph70%29.59 "HgN/A
11:20 AM37 °FBroken clouds.15 mph70%29.59 "HgN/A
10:50 AM37 °FPartly sunny.14 mph70%29.59 "HgN/A
10:20 AM36 °FPartly sunny.10 mph75%29.59 "HgN/A
9:50 AM36 °FBroken clouds.8 mph81%29.56 "HgN/A
9:20 AM34 °FBroken clouds.10 mph87%29.56 "HgN/A
8:50 AM34 °FSnow flurries. Broken clouds.10 mph87%29.56 "HgN/A
8:20 AM34 °FLight snow. Partly sunny.8 mph87%29.53 "Hg4 mi
7:50 AM34 °FLight snow. Partly sunny.8 mph87%29.53 "Hg1 mi
7:20 AM34 °FLight snow. Passing clouds.9 mph87%29.50 "Hg2 mi
6:50 AM34 °FSnow. Dense fog.10 mph87%29.50 "Hg1 mi
6:20 AM34 °FSnow. Dense fog.12 mph87%29.50 "Hg1 mi
5:20 AM32 °FSnow. Dense fog.10 mph100%29.47 "Hg1 mi
4:50 AM32 °FSnow. Dense fog.13 mph93%29.47 "Hg1 mi
3:50 AM34 °FLight rain. Passing clouds.16 mph87%29.47 "Hg5 mi
3:20 AM36 °FSnow flurries. Partly cloudy.14 mph81%29.47 "Hg5 mi
2:50 AM36 °FSprinkles. Passing clouds.17 mph81%29.47 "Hg5 mi
2:20 AM37 °FPassing clouds.15 mph70%29.47 "HgN/A
Weather by CustomWeather, © 2016

See weather overviewHow to use our weather pages